Location: Newark
(48.8833°N, 0.9236°W)
Time: 07:49:08
(UTC+00:00)

Tiros 1 despin weight - Pass Details

Date: 26 November 2019
Orbit: 594 x 642 km, 48.2° (Epoch: 05 December)

Event Time Altitude Azimuth Distance (km) Brightness Sun altitude
Rises 16:08:53 0° 282° (WNW) 2,836 ? -0.3°
Reaches altitude 10° 16:11:25 10° 271° (W) 1,935 ? -0.6°
Maximum altitude 16:15:09 27° 213° (SSW) 1,162 ? -1.2°
Drops below altitude 10° 16:18:55 10° 155° (SSE) 1,946 ? -1.7°
Sets 16:21:28 0° 144° (SE) 2,855 ? -2.1°
